When you browse on this site, cookies collect data to enhance your experience and personalize the content and advertising you see.
Visit our Privacy Policy to learn more. By continuing to use the site, you agree to this use of cookies and data.
  • In Switzerland
  • List of Countries
  • For 7 days
  • Water Temperature
  • Satellite Maps
  • Weather Map
  • Weather Widgets
  • user-avatar
    Login

    Hourly Weather Asadabad

    Today, 25 April, Thursday

    Time Temperature Precipitation Wind Pressure Humidity
    00:00 +18°C° 0.4 mm 2 mps 659 mmHg 65%
    01:00 +18°C° 0.4 mm 2 mps 659 mmHg 66%
    02:00 +17°C° 0.4 mm 3 mps 658 mmHg 67%
    03:00 +17°C° 0.5 mm 3 mps 658 mmHg 66%
    04:00 +16°C° 0.5 mm 3 mps 658 mmHg 66%
    05:00 +16°C° 0 mm 3 mps 658 mmHg 68%
    06:00 +17°C° 0.4 mm 3 mps 659 mmHg 64%
    07:00 +19°C° 0.4 mm 2 mps 659 mmHg 59%
    08:00 +20°C° 0.4 mm 2 mps 660 mmHg 54%
    09:00 +21°C° 0.2 mm 2 mps 660 mmHg 50%
    10:00 +23°C° 0.2 mm 2 mps 660 mmHg 46%
    11:00 +24°C° 0 mm 2 mps 661 mmHg 42%
    12:00 +25°C° 0.3 mm 3 mps 660 mmHg 40%
    13:00 +26°C° 0.3 mm 3 mps 660 mmHg 39%
    14:00 +26°C° 0.3 mm 3 mps 660 mmHg 37%
    15:00 +26°C° 0.5 mm 3 mps 660 mmHg 38%
    16:00 +26°C° 0.5 mm 3 mps 659 mmHg 39%
    17:00 +26°C° 0.5 mm 3 mps 659 mmHg 41%
    18:00 +24°C° 1.3 mm 2 mps 659 mmHg 48%
    19:00 +21°C° 1.3 mm 2 mps 658 mmHg 55%
    20:00 +19°C° 1.3 mm 2 mps 658 mmHg 63%
    21:00 +19°C° 1.1 mm 2 mps 658 mmHg 63%
    22:00 +18°C° 1.1 mm 3 mps 658 mmHg 64%
    23:00 +17°C° 1.1 mm 4 mps 658 mmHg 65%

    Tomorrow, 26 April, Friday

    Time Temperature Precipitation Wind Pressure Humidity
    00:00 +17°C° 0.6 mm 3 mps 658 mmHg 64%
    01:00 +17°C° 0.6 mm 3 mps 658 mmHg 63%
    02:00 +16°C° 0.6 mm 3 mps 658 mmHg 62%
    03:00 +16°C° 0.1 mm 3 mps 658 mmHg 60%
    04:00 +16°C° 0.1 mm 3 mps 658 mmHg 59%
    05:00 +14°C° 0.1 mm 3 mps 658 mmHg 58%
    06:00 +17°C° 0.1 mm 3 mps 658 mmHg 53%
    07:00 +18°C° 0.1 mm 3 mps 659 mmHg 49%
    08:00 +20°C° 0.1 mm 2 mps 660 mmHg 44%
    09:00 +21°C° 0.2 mm 2 mps 660 mmHg 42%
    10:00 +23°C° 0.2 mm 2 mps 660 mmHg 41%
    11:00 +24°C° 0.2 mm 2 mps 661 mmHg 40%
    12:00 +25°C° 0.2 mm 2 mps 660 mmHg 39%
    13:00 +25°C° 0.2 mm 2 mps 660 mmHg 38%
    14:00 +26°C° 0.2 mm 2 mps 660 mmHg 37%
    15:00 +26°C° 0.2 mm 2 mps 660 mmHg 36%
    16:00 +26°C° 0.2 mm 2 mps 660 mmHg 35%
    17:00 +26°C° 0.2 mm 2 mps 659 mmHg 35%
    18:00 +24°C° 0.3 mm 2 mps 659 mmHg 40%
    19:00 +22°C° 0.3 mm 1 mps 659 mmHg 46%
    20:00 +21°C° 0.3 mm 1 mps 659 mmHg 52%
    21:00 +19°C° 0.3 mm 2 mps 659 mmHg 53%
    22:00 +19°C° 0.3 mm 3 mps 660 mmHg 53%
    23:00 +18°C° 0.3 mm 3 mps 660 mmHg 53%

    Day after tomorrow, 27 April, Saturday

    Time Temperature Precipitation Wind Pressure Humidity
    00:00 +18°C° 0.2 mm 3 mps 659 mmHg 53%
    01:00 +17°C° 0.2 mm 3 mps 659 mmHg 52%
    02:00 +17°C° 0.2 mm 3 mps 659 mmHg 52%
    03:00 +17°C° 0.1 mm 3 mps 659 mmHg 51%
    04:00 +15°C° 0.1 mm 4 mps 659 mmHg 50%
    05:00 +15°C° 0.1 mm 4 mps 659 mmHg 49%
    06:00 +18°C° 0.1 mm 3 mps 659 mmHg 44%
    07:00 +20°C° 0.1 mm 3 mps 660 mmHg 40%
    08:00 +21°C° 0.1 mm 3 mps 661 mmHg 36%
    09:00 +23°C° 0 mm 2 mps 661 mmHg 34%
    10:00 +24°C° 0 mm 2 mps 661 mmHg 32%
    11:00 +26°C° 0 mm 2 mps 661 mmHg 30%
    12:00 +26°C° 0 mm 2 mps 661 mmHg 29%
    13:00 +27°C° 0 mm 2 mps 661 mmHg 28%
    14:00 +27°C° 0 mm 3 mps 661 mmHg 27%
    15:00 +27°C° 0 mm 3 mps 660 mmHg 27%
    16:00 +27°C° 0 mm 3 mps 660 mmHg 27%
    17:00 +27°C° 0 mm 3 mps 660 mmHg 27%
    18:00 +25°C° 0.2 mm 2 mps 659 mmHg 34%
    19:00 +23°C° 0.2 mm 2 mps 659 mmHg 40%
    20:00 +21°C° 0.2 mm 1 mps 659 mmHg 46%
    21:00 +20°C° 0.2 mm 2 mps 659 mmHg 47%
    22:00 +19°C° 0.2 mm 3 mps 659 mmHg 47%
    23:00 +19°C° 0.2 mm 3 mps 659 mmHg 48%

    28 April, Sunday

    Time Temperature Precipitation Wind Pressure Humidity
    00:00 +18°C° 0.2 mm 3 mps 659 mmHg 48%
    01:00 +18°C° 0.2 mm 3 mps 658 mmHg 48%
    02:00 +17°C° 0.2 mm 3 mps 658 mmHg 48%
    03:00 +17°C° 0.2 mm 3 mps 658 mmHg 47%
    04:00 +17°C° 0.2 mm 3 mps 657 mmHg 46%
    05:00 +16°C° 0.2 mm 3 mps 657 mmHg 45%
    06:00 +18°C° 0 mm 3 mps 658 mmHg 41%
    07:00 +20°C° 0 mm 3 mps 659 mmHg 36%
    08:00 +23°C° 0 mm 2 mps 659 mmHg 32%
    09:00 +24°C° 0 mm 2 mps 660 mmHg 30%
    10:00 +25°C° 0 mm 2 mps 660 mmHg 28%
    11:00 +26°C° 0 mm 1 mps 660 mmHg 26%
    12:00 +27°C° 0 mm 2 mps 660 mmHg 24%
    13:00 +27°C° 0 mm 2 mps 660 mmHg 23%
    14:00 +28°C° 0 mm 2 mps 659 mmHg 22%
    15:00 +28°C° 0 mm 2 mps 659 mmHg 21%
    16:00 +28°C° 0 mm 2 mps 659 mmHg 20%
    17:00 +28°C° 0 mm 1 mps 659 mmHg 19%
    18:00 +26°C° 0 mm 1 mps 658 mmHg 24%
    19:00 +24°C° 0 mm 2 mps 658 mmHg 29%
    20:00 +21°C° 0 mm 2 mps 658 mmHg 34%
    21:00 +20°C° 0 mm 2 mps 658 mmHg 35%
    22:00 +20°C° 0 mm 3 mps 658 mmHg 35%
    23:00 +20°C° 0 mm 3 mps 658 mmHg 36%

    29 April, Monday

    Time Temperature Precipitation Wind Pressure Humidity
    00:00 +19°C° 0 mm 3 mps 658 mmHg 36%
    01:00 +19°C° 0 mm 3 mps 658 mmHg 35%
    02:00 +18°C° 0 mm 3 mps 657 mmHg 35%
    03:00 +18°C° 0 mm 3 mps 657 mmHg 34%
    04:00 +17°C° 0 mm 3 mps 657 mmHg 33%
    05:00 +17°C° 0 mm 3 mps 657 mmHg 32%
    06:00 +19°C° 0 mm 3 mps 657 mmHg 29%
    07:00 +21°C° 0 mm 3 mps 658 mmHg 27%
    08:00 +24°C° 0 mm 2 mps 659 mmHg 24%
    09:00 +25°C° 0 mm 2 mps 659 mmHg 22%
    10:00 +26°C° 0 mm 2 mps 659 mmHg 20%
    11:00 +28°C° 0 mm 1 mps 659 mmHg 18%
    12:00 +28°C° 0 mm 2 mps 659 mmHg 18%
    13:00 +29°C° 0 mm 2 mps 658 mmHg 18%
    14:00 +29°C° 0 mm 2 mps 658 mmHg 18%
    15:00 +29°C° 0 mm 2 mps 657 mmHg 18%
    16:00 +29°C° 0 mm 2 mps 657 mmHg 19%
    17:00 +29°C° 0 mm 2 mps 657 mmHg 19%
    18:00 +27°C° 0 mm 2 mps 657 mmHg 25%
    19:00 +25°C° 0 mm 1 mps 657 mmHg 30%
    20:00 +21°C° 0 mm 0 mps 657 mmHg 36%
    21:00 +23°C° 0 mm 1 mps 657 mmHg 34%
    22:00 +23°C° 0 mm 2 mps 657 mmHg 31%
    23:00 +22°C° 0 mm 3 mps 657 mmHg 29%

    30 April, Tuesday

    Time Temperature Precipitation Wind Pressure Humidity
    00:00 +22°C° 0 mm 3 mps 657 mmHg 31%
    01:00 +21°C° 0 mm 3 mps 657 mmHg 33%
    02:00 +21°C° 0 mm 4 mps 656 mmHg 35%
    03:00 +20°C° 0 mm 4 mps 656 mmHg 37%
    04:00 +20°C° 0 mm 4 mps 656 mmHg 39%
    05:00 +19°C° 0 mm 4 mps 656 mmHg 41%
    06:00 +20°C° 0.1 mm 4 mps 656 mmHg 41%
    07:00 +20°C° 0.1 mm 3 mps 657 mmHg 40%
    08:00 +21°C° 0.1 mm 3 mps 657 mmHg 40%
    09:00 +22°C° 0.1 mm 3 mps 658 mmHg 37%
    10:00 +24°C° 0.1 mm 2 mps 658 mmHg 34%
    11:00 +25°C° 0.1 mm 1 mps 658 mmHg 31%
    12:00 +24°C° 0.3 mm 2 mps 658 mmHg 35%
    13:00 +22°C° 0.3 mm 3 mps 657 mmHg 39%
    14:00 +21°C° 0.3 mm 3 mps 656 mmHg 44%
    15:00 +22°C° 0 mm 3 mps 656 mmHg 41%
    16:00 +24°C° 0 mm 3 mps 657 mmHg 38%
    17:00 +25°C° 0 mm 2 mps 657 mmHg 35%
    18:00 +23°C° 0 mm 2 mps 657 mmHg 39%
    19:00 +21°C° 0 mm 2 mps 656 mmHg 43%
    20:00 +19°C° 0 mm 2 mps 656 mmHg 47%
    21:00 +19°C° 0.1 mm 2 mps 656 mmHg 47%
    22:00 +19°C° 0.1 mm 2 mps 657 mmHg 47%
    23:00 +19°C° 0.1 mm 3 mps 657 mmHg 47%
    Show more